www.pogodaiklimat.ru

Погода и климат >> Архив погоды >> Россия >> Чукотка >> Раучуа


ПОГОДА в Раучуе

  • Прогноз погоды в Раучуе
  • Монитор погоды в Раучуе

АРХИВ ПОГОДЫ в Раучуе

Время (UTC), дата Ветер
(напр.,м/с)
 
Видим.   Явления Облачность Т
(С)
Тd
(С)
f
(%)
Тe
(С)
Тes
(С)
Комфортность P
(гПа)
Po
(гПа)
Тmin
(С)
Tmax
(С)
R
(мм)
R24
(мм)
S
(см)
06 16.08 СВ 3
{5}
20 км 1/1 600 м
[Sc]
+2.8 +1.2 89 -1 0 1032.0 1031.4
09 16.08 В 4
{6}
20 км ясно +4.0 +3.0 93 -1 -1 1032.1 1031.5 +4.2
12 16.08 ЮВ 5
{9}
500 м туман ?/? +2.4 +2.4 100 -3 -3 1032.8 1032.2
15 16.08 ЮВ 3
{6}
500 м туман ?/? +2.4 +2.4 100 -2 -2 1033.1 1032.5
18 16.08 ЮВ 4
{6}
500 м туман ?/? +0.8 +0.8 100 -5 -5 1033.4 1032.8
21 16.08 ЮВ 7
{9}
20 км {туман} 1/0
[Ci fib]
+5.4 +4.2 92 -0 +1 1033.6 1033.0 0.0
00 17.08 ЮВ 8
{11}
20 км {туман} ясно +11.2 +5.6 68 +8 +9 1033.3 1032.7
03 17.08 ЮВ 9-10
{11}
20 км ясно +13.6 +6.1 60 +11 +12 1032.5 1031.9
06 17.08 В 8
{11}
20 км ясно +13.0 +6.8 66 +10 +11 1031.8 1031.2
09 17.08 В 6
{9}
20 км 3/0
[Ci fib]
+10.0 +7.6 85 +7 +7 1031.2 1030.6 +13.6
12 17.08 Ю 4
{8}
20 км 3/0
[Ci fib]
+6.0 +5.1 94 +2 +2 1031.2 1030.6
15 17.08 Ю 2
{5}
20 км 1/0
[Ci fib]
+4.6 +3.9 95 +2 +2 1030.9 1030.3
18 17.08 ЮВ 2
{3}
20 км 3/0
[Ci fib]
+3.9 +3.2 95 +1 +1 1030.8 1030.2
21 17.08 ЮВ 2
{5}
20 км 3/0
[Ac trans Ci fib]
+10.8 +5.3 69 +10 +12 1030.7 1030.1 +2.9
00 18.08 ЮВ 5
{8}
20 км 4/0
[Ac trans Ci fib]
+16.7 +6.7 52 +16 +19 1029.4 1028.8
03 18.08 В 6
{10}
20 км 4/0
[Ac trans Ci fib]
+18.0 +9.0 56 +17 +19 1027.8 1027.2
06 18.08 В 7
{11}
20 км 6/0
[Ac trans Ci fib]
+17.3 +11.2 67 +16 +17 1026.8 1026.2
09 18.08 В 7
{10}
20 км 8/3 600 м
[Sc Ac lent Ci fib]
+13.8 +10.4 80 +11 +11 1025.7 1025.1 +18.3
12 18.08 ЮВ 5
{7}
20 км 8/6 600 м
[Sc Ci fib]
+10.2 +9.5 95 +7 +7 1025.1 1024.5
15 18.08 З 3
{6}
20 км 8/8 600 м
[Sc Ci fib]
+4.7 +4.2 97 +1 +1 1024.8 1024.2
18 18.08 З 3
{5}
20 км 9/9 600 м
[Sc]
+8.5 +7.4 93 +6 +6 1024.9 1024.3
21 18.08 ЮЗ 1
{4}
20 км 10/8 600 м
[Cb cap Ac und]
+11.6 +10.0 90 +11 +12 1025.2 1024.6 +3.5
00 19.08 З 2
{4}
20 км 9/6 600 м
[Cb cap Ac trans]
+10.7 +7.1 78 +9 +11 1025.4 1024.8
03 19.08 штиль 0
{3}
20 км 9/6 600 м
[Cb cap Ac trans]
+8.6 +5.9 83 +8 +9 1025.5 1024.9
06 19.08 штиль 0
{2}
20 км 9/6 600 м
[Sc Ac trans]
+7.3 +5.9 91 +6 +7 1025.5 1024.9
09 19.08 ЮВ 1
{3}
20 км 8/8 600 м
[Cb cap Ac trans]
+10.6 +9.0 90 +10 +10 1025.4 1024.8
12 19.08 ЮВ 1
{3}
20 км 6/3 600 м
[Sc Ac trans Ci fib]
+10.4 +9.5 94 +10 +10 1025.3 1024.7
15 19.08 ЮВ 2
{4}
20 км 6/3 600 м
[Sc Ac trans Ci fib]
+9.4 +8.6 95 +8 +8 1025.0 1024.4
18 19.08 ЮВ 1
{3}
20 км 4/0
[Ac trans Ci fib]
+8.0 +7.1 94 +7 +7 1024.9 1024.3
21 19.08 ЮВ 2
{4}
20 км 3/0
[Ci fib]
+12.9 +10.4 85 +12 +15 1024.4 1023.8 +7.6
00 20.08 ЮВ 4
{6}
20 км 1/0
[Ci fib]
+18.4 +11.1 62 +19 +23 1023.4 1022.9
03 20.08 СВ 4
{6}
20 км 9/1 600 м
[Cu hum Ci fib]
+10.8 +8.4 85 +8 +11 1022.4 1021.8
06 20.08 ЮВ 6
{8}
20 км 8/1 600 м
[Cu hum Ci fib]
+18.0 +12.6 71 +17 +18 1021.4 1020.9
09 20.08 В 4
{7}
20 км 6/0
[Ci fib]
+14.6 +12.2 86 +13 +13 1021.0 1020.4 +19.4
12 20.08 Ю 1
{5}
20 км 4/0
[Ac trans Ci fib]
+11.0 +10.4 96 +11 +11 1020.4 1019.8
15 20.08 ЮЗ 1
{3}
20 км 4/0
[Ac trans Ci fib]
+8.4 +7.8 96 +7 +7 1019.6 1019.0
18 20.08 ЮЗ 2
{4}
20 км 9/0
[Ac trans Ci fib]
+7.1 +6.2 94 +5 +5 1019.0 1018.4
21 20.08 З 2
{4}
20 км 6/0
[Ac trans Ci fib]
+5.9 +5.4 97 +3 +5 1018.5 1017.9 +5.9
00 21.08 З 3
{5}
20 км 6/3 600 м
[Cu hum Ci fib]
+5.9 +4.7 92 +3 +6 1018.2 1017.6
03 21.08 З 4
{6}
20 км 6/3 600 м
[Cu hum Ci fib]
+5.7 +4.5 92 +2 +4 1017.8 1017.2
06 21.08 З 4
{6}
20 км 6/3 600 м
[Sc Ci fib]
+6.2 +5.3 94 +2 +3 1017.6 1017.0
09 21.08 СЗ 4
{6}
500 м туман ?/? +5.1 +5.1 100 +1 +1 1017.8 1017.2 +6.3
12 21.08 З 5
{7}
500 м туман ?/? +4.3 +4.3 100 -1 -1 1018.1 1017.5
15 21.08 СЗ 5
{7}
500 м туман ?/? +4.6 +4.6 100 -1 -1 1018.5 1017.9
18 21.08 СЗ 6
{8}
500 м туман ?/? +3.0 +3.0 100 -3 -3 1020.3 1019.7
21 21.08 СЗ 5
{7}
500 м туман ?/? +3.0 +3.0 100 -3 -3 1021.5 1020.9 +2.7
00 22.08 СЗ 3
{6}
10 км {туман} 10/10 200 м
[St]
+3.4 +2.9 97 -1 -1 1022.5 1012.9
03 22.08 С 1
{4}
4000 м дымка 10/10 200 м
[St]
+3.6 +2.9 95 +2 +2 1023.6 1023.0
06 22.08 СВ 2
{4}
4000 м дымка 10/10 200 м
[St]
+3.8 +3.3 97 +1 +1 1024.0 1023.4
09 22.08 штиль 0
{3}
4000 м в посл. час туман 10/10 200 м
[St]
+3.8 +3.3 97 +3 +3 1024.5 1023.9 +4.0
12 22.08 штиль 0
{2}
20 км {туман} 10/10 300 м
[St]
+4.0 +3.0 93 +3 +3 1024.6 1024.0
15 22.08 штиль 0
{2}
20 км 10/8 600 м
[Sc Ac und]
+4.2 +3.2 93 +3 +3 1024.6 1024.0
18 22.08 В 2
{4}
500 м туман ?/? +3.2 +3.2 100 -0 -0 1024.6 1024.0
21 22.08 В 2
{4}
20 км в посл. час туман 10/10 300 м
[St]
+4.6 +3.9 95 +2 +2 1024.5 1023.9 +2.5
00 23.08 СВ 3
{5}
20 км {туман} 8/6 300 м
[Sc Ac trans Ci fib]
+5.6 +4.4 92 +2 +4 1023.7 1023.1
03 23.08 СВ 4
{6}
20 км 6/6 600 м
[Sc]
+5.8 +4.4 91 +2 +3 1022.4 1021.8

 

Местоположение метеостанции Раучуа (Чукотка, Россия): широта 69.50 долгота 166.50 высота над уровнем моря 5 м.

В архиве по умолчанию представлена погода в Раучуе за последнюю неделю. Архивные данные за месяц целиком и за предыдущие месяцы, начиная с января 2011 года, Вы можете получить, выбрав интересующий диапазон дат из раскрывающегося списка и нажав кнопку "Ввод!".


*Определитесь, кто Вы:
робот инопланетянин человек

Внимание! Время в таблицах - всемирное. Для получения местного времени необходимо прибавить поправку, которая равна 12 ч.

Смотрите также архив погоды в соседних городах и на ближайших метеорологических станциях:

Погода на Айон Острове (Чукотка, Россия) (72 км)
Погода в Певеке (Чукотка, Россия) (145 км)
Погода в Билибино (Чукотка, Россия) (161 км)
Погода в Бухте Амбарчик (Чукотка, Россия) (164 км)
Погода на 21 км (Чукотка, Россия) (169 км)
Погода в Чауне (Чукотка, Россия) (180 км)
Погода в Валькаркае (Чукотка, Россия) (181 км)
Погода в Островном (Чукотка, Россия) (181 км)
Погода в Черском (Якутия, Россия) (223 км)
Погода в Анюйске (Чукотка, Россия) (237 км)

Пояснения к столбцам:

Ветер - указаны скорость ветра в м/с - средняя за 10 мин, порывы в срок и между сроками (в фигурных скобках) и направление, откуда дует ветер: С - северный, СВ - северо-восточный, В - восточный, ЮВ - юго-восточный, Ю - южный, ЮЗ - юго-западный, З - западный, СЗ - северо-западный.
Видимость - горизонтальная дальность видимости в метрах или километрах. При видимости от 1 до 10 км при отсутствии осадков обычно наблюдается дымка, при ухудшении видимости до 1 км и менее - туман. В сухую погоду видимость может ухудшаться дымом, пылью или мглою.
Явления - указаны атмосферные явления, наблюдавшиеся в срок или в последний час перед сроком; фигурными скобками обозначены явления, наблюдавшиеся между сроками (за 1-3 часа до срока); квадратными скобками обозначены град или гололедные отложения с указанием их диаметра в мм.
Облачность - указаны через наклонную черту общая и нижняя облачность в баллах и высота нижней границы облаков в метрах; квадратными скобками обозначены формы облаков: Ci - перистые, Cs - перисто-слоистые, Cc - перисто-кучевые, Ac - высококучевые, As - высокослоистые, Sc - слоисто-кучевые, Ns - слоисто-дождевые, Cu - кучевые, Cb - кучево-дождевые. Подробнее классификацию облаков см. в Атласе облаков (PDF).
T - Температура воздуха - температура, измеренная на высоте 2 м над землей.
Td - Температура точки росы - температура, при понижении до которой содержащийся в воздухе водяной пар достигнет насыщения.
f - Относительная влажность воздуха - влажноcть воздуха, измеренная на высоте 2 м над землей.
Te - Эффективная температура - температура, которую ощущает одетый по сезону человек в тени. Характеристика душности погоды. При расчете учитывается влияние влажности воздуха и скорости ветра на теплоощущения человека.
Tes - Эффективная температура на солнце - температура, которую ощущает человек, с поправкой на солнечный нагрев. Характеристика знойности погоды. Зависит от высоты солнца над горизонтом, облачности и скорости ветра. Ночью, в пасмурную погоду, а также при ветре 12 м/с и более поправка равна нулю.
P - Атмосферное давление - приведенное к уровню моря атмосферное давление.
Po - Атмосферное давление - измеренное на уровне метеостанции атмосферное давление.
Tmin - Минимальная температура - минимум температуры воздуха на высоте 2 м над землей.
Tmax - Максимальная температура - максимум температуры воздуха на высоте 2 м над землей.
R - Количество осадков - Количество выпавших осадков за период времени, мм. При наведении курсора мыши на число - период времени, за который выпало указанное количество осадков.
R24 - Количество осадков - Количество выпавших осадков за 24 часа, мм.
S - Снежный покров - Высота снежного покрова, см. При наведении курсора мыши на число - состояние снежного покрова и степень покрытия местности в баллах.